Location: Newark
(25.4297°S, 49.2719°W)
Time: 17:19:03
(UTC+00:00)

SR - Visible Passes

Search period start: 21 November 2019 00:00
Search period end: 01 December 2019 00:00
Orbit: 573 x 882 km, 66.7° (Epoch: 21 November)

Date Brightness Start Highest point End Pass type
(mag) Time Alt. Az. Time Alt. Az. Time Alt. Az.
21 Nov ? 04:48:28 18° SSE 04:48:28 18° SSE 04:49:36 10° SSE visible
22 Nov ? 05:39:32 15° SSW 05:39:32 15° SSW 05:40:44 10° SSW visible
23 Nov ? 04:51:10 15° S 04:51:10 15° S 04:52:04 10° S visible
25 Nov ? 04:53:40 11° SSW 04:53:40 11° SSW 04:53:53 10° SSW visible
